This demonstration page uses our WeatherBlox Daily Observations layout. Learn more.

Left ArrowRight Arrow

Hourly Observations for May 18, 2018

Temp ( °F °C ) Dew Point ( °F °C ) Humidity (%) Winds ( mph kmh ) Pressure ( in mb ) Visibility ( mi km ) Precip ( " mm )
12:53 am 00:53 Clear 66 18.9 57 13.9 73 73 NNE 3 6 29.90 1013 10 16 0.00 0.00
1:53 am 01:53 Clear 66 18.9 56 13.3 70 70 Calm 29.91 1013 10 16 0.00 0.00
2:53 am 02:53 Clear 64 17.8 57 13.9 78 78 Calm 29.91 1013 10 16 0.00 0.00
3:53 am 03:53 Clear 64 17.8 57 13.9 78 78 NNW 3 6 29.91 1013 10 16 0.00 0.00
4:53 am 04:53 Clear 61 16.1 56 13.3 84 84 Calm 29.91 1013 10 16 0.00 0.00
5:53 am 05:53 Sunny 60 15.6 56 13.3 86 86 NW 3 6 29.91 1013 10 16 0.00 0.00
6:53 am 06:53 Sunny 63 17.2 56 13.3 78 78 Calm 29.91 1013 10 16 0.00 0.00
7:53 am 07:53 Sunny 67 19.4 57 13.9 71 71 N 5 7 29.91 1013 10 16 0.00 0.00
8:53 am 08:53 Sunny 70 21.1 57 13.9 64 64 NE 3 6 29.91 1013 10 16 0.00 0.00
9:53 am 09:53 Sunny 75 23.9 56 13.3 52 52 NW 6 9 29.90 1012 10 16 0.00 0.00
10:53 am 10:53 Sunny 78 25.6 56 13.3 47 47 VRB 5 7 29.88 1012 10 16 0.00 0.00
11:53 am 11:53 Sunny 81 27.2 53 11.7 38 38 VRB 3 6 29.87 1012 10 16 0.00 0.00
12:53 pm 12:53 Sunny 84 28.9 44 6.7 25 25 SE 6 9 29.85 1011 10 16 0.00 0.00
1:53 pm 13:53 Sunny 87 30.6 44 6.7 22 22 SW 7 11 29.83 1010 10 16 0.00 0.00
2:53 pm 14:53 Sunny 88 31.1 42 5.6 20 20 SE 7 11 29.81 1009 10 16 0.00 0.00
3:53 pm 15:53 Sunny 89 31.7 41 5 19 19 W 6 9 29.78 1009 10 16 0.00 0.00
4:53 pm 16:53 Sunny 90 32.2 42 5.6 19 19 VRB 5 7 29.77 1008 10 16 0.00 0.00
5:53 pm 17:53 Mostly Sunny 88 31.1 41 5 19 19 Calm 29.76 1008 10 16 0.00 0.00
6:53 pm 18:53 Sunny 86 30 43 6.1 22 22 NE 5 7 29.75 1008 10 16 0.00 0.00
7:53 pm 19:53 Sunny 82 27.8 51 10.6 34 34 WSW 5 7 29.77 1008 7 11 0.00 0.00
8:53 pm 20:53 Clear 82 27.8 39 3.9 22 22 NNW 6 9 29.78 1008 10 16 0.00 0.00
9:53 pm 21:53 Clear 77 25 42 5.6 29 29 Calm 29.80 1009 10 16 0.00 0.00
10:53 pm 22:53 Clear 72 22.2 48 8.9 43 43 SE 9 15 29.81 1010 10 16 0.00 0.00
11:53 pm 23:53 Clear 74 23.3 43 6.1 33 33 Calm 29.82 1010 10 16 0.00 0.00

Powered by AerisWeather